Regional Weather Roundup
Issued by NWS

Home | Current Version | Previous Version | Graphics & Text | Print | Product List | Glossary On
Versions: 1 2 3 4 5 6 7 8 9 10 11 12 13 14 15 16 17 18 19 20 21 22 23 24 25 26 27 28 29 30 31 32 33 34 35 36 37 38 39 40 41 42 43 44 45 46 47 48 49 50
000
ASUS45 KCYS 011910
RWRWY

WYOMING REGIONAL WEATHER ROUNDUP
NATIONAL WEATHER SERVICE CHEYENNE WY
100 PM MDT WED JUL 01 2015

NOTE:  "FAIR" INDICATES FEW OR NO CLOUDS BELOW 12,000 FEET
WITH NO SIGNIFICANT WEATHER AND/OR OBSTRUCTIONS TO VISIBILITY.

WYZ001-012000-
YELLOWSTONE NATIONAL PARK

CITY           SKY/WX    TMP DP  RH WIND       PRES   REMARKS
LK YELLOWSTONE   N/A     73  51  46 VRB5      30.34F
W YELLOWSTONE  NOT AVBL

$$
WYZ002>013-054>058-071-098>099-012000-
NORTHERN WYOMING

CITY           SKY/WX    TMP DP  RH WIND       PRES   REMARKS
JACKSON        FAIR      79  55  44 SW8       30.23F
CODY           FAIR      82  50  32 N8        30.11F
GREYBULL       FAIR      90  47  22 SE6       30.00F
WORLAND        FAIR      86  52  30 CALM      30.03F
SHERIDAN       FAIR      86  48  26 CALM      30.06F
BUFFALO        FAIR      83  50  31 E6        30.13F
GILLETTE       FAIR      83  53  35 VRB6      30.08F
HULETT         FAIR      79  55  44 N6        30.10R
NEWCASTLE      FAIR      82  46  28 MISG      30.07S

$$
WYZ014>020-022>026-101>103-012000-
CENTRAL WYOMING

CITY           SKY/WX    TMP DP  RH WIND       PRES   REMARKS
BIG PINEY      FAIR      83  44  25 W9        30.27F
PINEDALE       FAIR      81  36  19 NW9       30.28F
DUBOIS         LGT RAIN  75  43  31 N12       30.24S
LANDER         FAIR      83  55  38 CALM      30.12F
RIVERTON       FAIR      85  51  31 CALM      30.13F
CASPER         FAIR      85  50  29 VRB3      30.13F
DOUGLAS        FAIR      86  51  29 NE12      30.12F

$$
WYZ021-027>030-104>119-012000-
SOUTHERN WYOMING

CITY           SKY/WX    TMP DP  RH WIND       PRES   REMARKS
EVANSTON       FAIR      84  42  22 SW10G16   30.30F
KEMMERER       FAIR      82  37  20 NW10G23   30.31F
FORT BRIDGER   CLEAR     86  39  19 W7G17     30.31F
ROCK SPRINGS   NOT AVBL
DIXON          FAIR      76  54  46 W7        30.28S
RAWLINS        FAIR      83  44  25 VRB5      30.25F
SARATOGA       FAIR      81  46  30 NW7       30.27F
LARAMIE        FAIR      78  48  34 VRB6      30.27F
CHEYENNE       FAIR      83  54  36 NE6       30.21S
TORRINGTON     FAIR      92  47  21 NE8       30.04F
PINE BLUFFS    FAIR      86  50  28 NE10      30.15S

$$



USA.gov is the U.S. government's official web portal to all federal, state and local government web resources and services.